Weather History for KDRO - July, 2013

Change the Weather History Date:

Friday, July 19, 2013

  Actual Average Record
Temperature  
Mean Temperature 71 °F 69 °F  
Max Temperature 85 °F 86 °F 97 °F (2005)
Min Temperature 56 °F 53 °F 40 °F (1972)
Degree Days  
Heating Degree Days 0 0  
Month to date heating degree days 0 8  
Since 1 June heating degree days 40 123  
Since 1 July heating degree days 0 8  
Cooling Degree Days 6 4  
Month to date cooling degree days 123 65  
Year to date cooling degree days 178 94  
Since 1 June cooling degree days 178 93  
Growing Degree Days 20 (Base 50)    
Moisture  
Dew Point 51 °F    
Average Humidity 55    
Maximum Humidity 80    
Minimum Humidity 30    
Precipitation  
Precipitation T in 0.06 in 1.04 in (1977)
Month to date precipitation 0.97 0.82  
Year to date precipitation 4.74 6.89  
Sea Level Pressure  
Sea Level Pressure 30.03 in    
Wind  
Wind Speed 6 mph (NNW)    
Max Wind Speed 22 mph    
Max Gust Speed 28 mph    
Visibility 10 miles    
Events Rain , Thunderstorm    
T = Trace of Precipitation, MM = Missing Value Source: NWS Daily Summary

Daily Weather History Graph

Daily Weather History Graph

Search for Another Location

Airport or City:

Trip Planner

Search our weather history database for the weather conditions in past years. The results will help you decide how hot, cold, wet, or windy it might be!

Date:

Astronomy

Jul. 19, 2013 Rise Set
Actual Time 6:05 AM MDT 8:28 PM MDT
Civil Twilight 5:36 AM MDT 8:58 PM MDT
Nautical Twilight 4:59 AM MDT 9:34 PM MDT
Astronomical Twilight 4:19 AM MDT 10:14 PM MDT
Moon 5:34 PM MDT (7/19) 2:49 AM MDT (7/19)
Length of Visible Light 15h 21m
Length of Day
14h 22m
Waxing Gibbous, 87% of the Moon is Illuminated
Jul 19
Waxing Gibbous
Jul 22
Full
Jul 29
Last Quarter
Aug 6
New
Aug 14
First Quarter

Hourly Weather History & Observations

Time (MDT) Temp. Dew Point Humidity Pressure Visibility Wind Dir Wind Speed Gust Speed Precip Events Conditions
12:44 AM 68.0 °F 53.6 °F 60% 30.28 in 10.0 mi Calm Calm - 0.00 in Rain , Thunderstorm Light Rain
12:53 AM 68.0 °F 52.0 °F 56% 30.00 in 10.0 mi Calm Calm - 0.00 in Thunderstorm Thunderstorm
1:05 AM 66.2 °F 53.6 °F 64% 30.29 in 10.0 mi West 3.5 mph - N/A Thunderstorm Thunderstorm
1:38 AM 64.4 °F 53.6 °F 68% 30.29 in 10.0 mi North 3.5 mph - 0.00 in Rain Light Rain
1:53 AM 64.0 °F 55.0 °F 73% 29.99 in 10.0 mi NE 3.5 mph - 0.00 in Rain Light Rain
2:53 AM 63.0 °F 52.0 °F 67% 29.99 in 10.0 mi Calm Calm - N/A   Clear
3:53 AM 62.1 °F 51.1 °F 67% 29.98 in 10.0 mi NNE 3.5 mph - N/A   Clear
4:53 AM 57.9 °F 51.1 °F 78% 30.00 in 10.0 mi NNW 5.8 mph - N/A   Clear
5:53 AM 57.0 °F 50.0 °F 77% 30.02 in 10.0 mi NNE 4.6 mph - N/A   Clear
6:53 AM 57.0 °F 51.1 °F 81% 30.04 in 10.0 mi Calm Calm - N/A   Clear
7:53 AM 63.0 °F 50.0 °F 63% 30.04 in 10.0 mi Calm Calm - N/A   Clear
8:53 AM 69.1 °F 51.1 °F 53% 30.03 in 10.0 mi Calm Calm - N/A   Clear
9:53 AM 71.1 °F 50.0 °F 47% 30.03 in 10.0 mi Variable 4.6 mph - N/A   Clear
10:53 AM 75.0 °F 51.1 °F 43% 30.01 in 10.0 mi Calm Calm - N/A   Scattered Clouds
11:53 AM 78.1 °F 51.1 °F 39% 29.99 in 10.0 mi West 4.6 mph - N/A   Clear
12:53 PM 80.1 °F 51.1 °F 36% 29.95 in 10.0 mi NE 6.9 mph - N/A   Clear
1:53 PM 82.9 °F 48.9 °F 31% 29.92 in 10.0 mi WNW 5.8 mph - N/A   Clear
2:01 PM 82.4 °F 46.4 °F 28% 30.21 in 10.0 mi NW 11.5 mph 20.7 mph N/A Thunderstorm Partly Cloudy
2:16 PM 82.4 °F 48.2 °F 30% 30.21 in 10.0 mi NW 13.8 mph 20.7 mph N/A   Partly Cloudy
2:48 PM 84.2 °F 50.0 °F 30% 30.20 in 10.0 mi WNW 15.0 mph 23.0 mph N/A Thunderstorm Clear
2:53 PM 84.0 °F 50.0 °F 31% 29.90 in 10.0 mi WNW 15.0 mph 23.0 mph N/A Thunderstorm Clear
3:03 PM 84.2 °F 50.0 °F 30% 30.19 in 10.0 mi WNW 13.8 mph 23.0 mph N/A   Clear
3:53 PM 84.0 °F 48.0 °F 28% 29.88 in 10.0 mi West 9.2 mph 18.4 mph N/A   Partly Cloudy
4:53 PM 81.0 °F 46.9 °F 30% 29.91 in 10.0 mi NW 9.2 mph 24.2 mph N/A   Scattered Clouds
5:53 PM 82.9 °F 48.0 °F 29% 29.88 in 10.0 mi NE 20.7 mph 25.3 mph N/A   Clear
6:53 PM 78.1 °F 48.0 °F 35% 29.91 in 10.0 mi ENE 11.5 mph - N/A   Clear
7:53 PM 73.9 °F 48.9 °F 41% 29.94 in 10.0 mi SE 16.1 mph 23.0 mph N/A   Mostly Cloudy
8:53 PM 71.1 °F 52.0 °F 51% 29.96 in 10.0 mi SE 12.7 mph - N/A   Partly Cloudy
9:53 PM 69.1 °F 51.1 °F 53% 30.00 in 10.0 mi South 5.8 mph - N/A   Partly Cloudy
10:53 PM 68.0 °F 52.0 °F 56% 30.00 in 10.0 mi South 5.8 mph - N/A   Overcast
11:53 PM 68.0 °F 52.0 °F 56% 29.98 in 10.0 mi Calm Calm - N/A   Overcast